Weather Roundup
Issued by NWS

Home | Current Version | Previous Version | Text Only | Print | Product List | Glossary On
Versions: 1 2 3 4 5 6 7 8 9 10 11 12 13 14 15 16 17 18 19 20 21 22 23 24 25 26 27 28 29 30 31 32 33 34 35 36 37 38 39 40 41 42 43 44 45 46 47 48 49 50
000
NZUS93 KARX 301710
HRRWXR

CURRENT HOURLY OBSERVATIONS ACROSS
MUCH OF THE UPPER MISSISSIPPI VALLEY
NATIONAL WEATHER SERVICE LA CROSSE WI
1200 PM CDT FRI SEP 30 2016


...SOUTHEAST MINNESOTA...


CITY           SKY/WX    TMP DP  RH WIND       PRES   REMARKS
ROCHESTER      SUNNY     66  55  67 N12       30.31F
ROCHESTER/MAYO NOT AVBL
WINONA         SUNNY     64  52  63 NE6       30.29F
AUSTIN         SUNNY     66  52  59 NE10G17   30.29F
ALBERT LEA     SUNNY     66  50  55 NE10G17   30.30F
DODGE CENTER   SUNNY     66  50  55 NE13      30.30F
PRESTON        PTSUNNY   62  53  73 NE12      30.29F
OWATONNA       SUNNY     66  52  59 N12       30.31F
FARIBAULT      SUNNY     66  54  63 N7        30.33F
$$

...ELSEWHERE IN MINNESOTA...


CITY           SKY/WX    TMP DP  RH WIND       PRES   REMARKS
MINNEAPOLIS    SUNNY     63  53  70 N8        30.35F
INTNL FALLS    CLOUDY    50  49  96 SE6       30.42F
DULUTH         CLOUDY    55  50  83 E8        30.42F
RED WING       SUNNY     70  50  49 E8        30.30F
REDWOOD FALLS  SUNNY     61  53  75 VRB3      30.35S
MANKATO        SUNNY     65  54  67 VRB7      30.33F
WORTHINGTON    SUNNY     67  50  54 E12       30.33F
FAIRMONT       SUNNY     68  50  52 VRB7      30.32F
$$

...SOUTHWEST WISCONSIN...


CITY           SKY/WX    TMP DP  RH WIND       PRES   REMARKS
LA CROSSE      CLOUDY    67  55  65 E13G18    30.28F
PRAIRIE DU CHI CLOUDY    61  53  74 NE5       30.25S
BOSCOBEL       CLOUDY    63  55  75 VRB5      30.25F
LONE ROCK      CLOUDY    61  56  83 NE9       30.25S
PLATTEVILLE    CLOUDY    60  58  93 NE12G20   30.23F
FORT MC COY    CLOUDY    62  55  78 E6        30.29F
CAMP DOUGLAS   CLOUDY    61  55  82 NE6       30.28F
MAUSTON-NEW LI NOT AVBL
VIROQUA        CLOUDY    60  55  84 NE8       30.28F
WIS DELLS      CLOUDY    59  55  86 NE9       30.25F
$$

...ELSEWHERE IN WISCONSIN...


CITY           SKY/WX    TMP DP  RH WIND       PRES   REMARKS
MILWAUKEE      LGT RAIN  61  58  90 NE10      30.20F FOG
MADISON        CLOUDY    62  57  83 NE12      30.22S
GREEN BAY      CLOUDY    62  59  90 N18       30.28F
EAU CLAIRE     CLOUDY    65  51  60 NE9       30.32F
BLACK RVR FLS  FAIR      68  51  54 E7        30.28F
MEDFORD        PTSUNNY   65  49  55 NE14      30.32F HAZE
WAUSAU         SUNNY     66  50  56 NE9G20    30.30F
WIS RAPIDS     MOSUNNY   67  56  67 E10       30.30S
MARSHFIELD     SUNNY     67  49  52 NE15      30.30S
RICE LAKE      SUNNY     64  51  64 N8        30.36F
$$

...NORTHEAST IOWA...


CITY           SKY/WX    TMP DP  RH WIND       PRES   REMARKS
WATERLOO       CLOUDY    61  54  77 NE10      30.25S
DUBUQUE        CLOUDY    60  56  86 NE14      30.22F
DECORAH        CLOUDY    61  55  82 VRB7      30.26F
MASON CITY     PTSUNNY   65  52  62 NE8G20    30.30F
CHARLES CITY   CLOUDY    63  55  77 NE9       30.28F
OELWEIN        CLOUDY    63  55  77 NE9G17    30.26S
$$

...ELSEWHERE IN IOWA...


CITY           SKY/WX    TMP DP  RH WIND       PRES   REMARKS
DES MOINES     CLOUDY    63  53  70 NE12      30.25F
IOWA CITY      CLOUDY    64  55  72 NE13      30.23S
FORT DODGE     CLOUDY    66  55  68 N7G16     30.30F
MARSHALLTOWN   CLOUDY    63  55  75 N12       30.24F
CEDAR RAPIDS   CLOUDY    62  57  83 NE10G21   30.22S
$$

...NORTHERN ILLINOIS...


CITY           SKY/WX    TMP DP  RH WIND       PRES   REMARKS
CHICAGO-OHARE  CLOUDY    63  60  90 NE14      30.14F
CHICAGO-MIDWAY CLOUDY    65  60  84 NE18G25   30.12F
MOLINE         CLOUDY    64  56  75 N12       30.18F
ROCKFORD       CLOUDY    66  57  72 NE16G26   30.17F
PEORIA         LGT RAIN  61  61 100 N7        30.14S FOG
$$

NOTE: "FAIR" INDICATES FEW OR NO CLOUDS BELOW 12,000 FEET WITH NO
SIGNIFICANT WEATHER AND/OR OBSTRUCTIONS TO VISIBILITY. WIND
SPEEDS ARE IN MILES-PER-HOUR.




USA.gov is the U.S. government's official web portal to all federal, state and local government web resources and services.